Location: Glendale
(37.4556°N, 88.6714°W)
Time: 13:57:33
(UTC+00:00)

COSMO-SKYMED 1 - Pass Details

Date: 08 December 2019
Orbit: 621 x 623 km, 97.9° (Epoch: 19 January)

Event Time Altitude Azimuth Distance (km) Brightness Sun altitude
Exits shadow 00:41:15 - 354° (N) 2,230 5.4 -24.1°
Reaches altitude 10° 00:41:53 10° 350° (N) 1,999 5.1 -24.2°
Maximum altitude 00:45:41 30° 289° (WNW) 1,115 4.3 -25.0°
Drops below altitude 10° 00:49:27 10° 228° (SW) 1,986 5.9 -25.7°
Sets 00:51:49 0° 218° (SW) 2,887 6.7 -26.2°
